GW4962 Weather Reports


time (UTC)temp
F
wind
direction
speed
knots
gust
knots
rain 1hr
in
rain 24hr
in
rain mn
in
humidity
%
barometer
mb
20260504190042 62 44 2.6 12.2 0.00 0.00 0.00 42 1006.2
20260504184542 63 17 4.3 16.5 0.00 0.00 0.00 40 1006.1
20260504183037 63 322 2.6 8.7 0.00 0.00 0.00 43 1006.0
20260504181538 65 318 3.5 11.3 0.00 0.00 0.00 39 1005.8
20260504180042 64 29 3.5 10.4 0.00 0.00 0.00 40 1005.5
20260504174539 64 24 3.5 9.6 0.00 0.00 0.00 39 1005.5
20260504173037 63 275 2.6 9.6 0.00 0.00 0.00 40 1005.3
20260504171544 63 319 0.9 12.2 0.00 0.00 0.00 41 1004.9
20260504081542 55 171 1.7 9.6 0.00 0.00 0.00 58 1002.6
20260504044540 54 0 0.0 0.0 0.00 0.00 0.00 55 1005.3
20260504043039 55 0 0.0 0.0 0.00 0.00 0.00 53 1005.7
20260504041540 57 0 0.0 0.0 0.00 0.00 0.00 51 1006.0
20260504040041 58 0 0.0 0.9 0.00 0.00 0.00 49 1006.1
20260504034541 58 0 0.0 0.9 0.00 0.00 0.00 49 1006.4
20260504033037 58 0 0.0 0.9 0.00 0.00 0.00 49 1006.7
20260504031543 58 0 0.0 0.0 0.00 0.00 0.00 50 1006.9
20260504030043 59 171 0.0 0.0 0.00 0.00 0.00 49 1007.0
20260504024539 59 0 0.0 0.0 0.00 0.00 0.00 49 1007.2
20260504023037 60 0 0.0 0.0 0.00 0.00 0.00 48 1007.1
20260504021537 62 0 0.0 0.9 0.00 0.00 0.00 46 1007.2
20260504020038 63 0 0.0 0.9 0.00 0.00 0.00 45 1007.2
20260504014550 65 0 0.0 0.0 0.00 0.00 0.00 43 1007.3
20260504013045 66 257 0.9 3.5 0.00 0.00 0.00 40 1007.4
20260504011540 67 0 0.0 5.2 0.00 0.00 0.00 40 1007.4
20260504010038 68 0 0.0 4.3 0.00 0.00 0.00 39 1007.5
20260504004537 68 309 0.0 3.5 0.00 0.00 0.00 38 1007.5
20260504003045 69 255 0.9 3.5 0.00 0.00 0.00 39 1007.6
20260504001537 69 0 0.0 4.3 0.00 0.00 0.00 39 1007.7
20260504000046 70 24 0.9 7.8 0.00 0.00 0.00 39 1007.9
20260503234547 71 265 0.9 7.0 0.00 0.00 0.00 37 1008.0
20260503233037 70 36 0.0 1.7 0.00 0.00 0.00 36 1008.1
20260503231537 71 98 0.9 7.8 0.00 0.00 0.00 36 1008.2
20260503230042 71 0 0.9 6.1 0.00 0.00 0.00 36 1008.5
20260503224537 72 215 0.0 2.6 0.00 0.00 0.00 34 1008.5
20260503223038 72 42 0.9 5.2 0.00 0.00 0.00 35 1008.7
20260503221538 72 36 1.7 8.7 0.00 0.00 0.00 35 1008.7
20260503220046 73 31 0.9 4.3 0.00 0.00 0.00 34 1008.9
20260503214538 73 22 1.7 5.2 0.00 0.00 0.00 34 1009.2
20260503213038 72 242 0.9 4.3 0.00 0.00 0.00 36 1009.3
20260503211537 73 271 1.7 10.4 0.00 0.00 0.00 36 1009.6
20260503210040 73 252 0.9 3.5 0.00 0.00 0.00 37 1009.8
20260503204539 72 33 1.7 3.5 0.00 0.00 0.00 37 1010.0
20260503203038 73 21 0.9 2.6 0.00 0.00 0.00 38 1010.2
20260503201536 72 309 0.9 5.2 0.00 0.00 0.00 39 1010.3
20260503200043 72 292 0.9 5.2 0.00 0.00 0.00 36 1010.8
20260503194539 72 317 1.7 7.8 0.00 0.00 0.00 37 1010.6
20260503193039 71 292 1.7 7.8 0.00 0.00 0.00 37 1010.7
20260503191539 70 34 1.7 4.3 0.00 0.00 0.00 42 1010.9